RASSVET-3 2

导读

RASSVET-3 2(NORAD编号68361)是俄罗斯“黎明-3”低轨互联网卫星星座中的一颗卫星,隶属于俄罗斯私营航天企业Bureau 1440主导、俄国家航天集团支持的俄版“星链”项目。 该项目旨在打造俄罗斯自主可控的低轨卫星互联网,摆脱对外国卫星通信系统的依赖。RASSVET-3系列卫星单颗质量约370公斤,搭载5G NTN非地面网络通信系统、星间激光通信终端与等离子推进系统,本次发射是项目从试验阶段转入规模化组网的关键一步,卫星入轨后将完成测试并转移至目标轨道提供互联网服务。

基本信息
目录编号:
68361
目录名称:
RASSVET-3 2
国际标识:
2026-061B
轨道中心:
EARTH
卫星名称:
RASSVET-3 2
卫星全名:
RASSVET-3 2
卫星状态:
在轨 (已飞行165 天)
发射日期:
2026-03-23 UTC
国别 :
俄罗斯(独联体) (CIS)
星等 :
--
轨道信息
数据来源 国际轨道数据
星历时间: 2026-09-04T10:42:05+0800
9小时前
查看轨道信息
半长轴: 6888.991km
偏心率: 0.0003276
轨道倾角: 82.290°
近地点辐角 171.476°
升交点赤经 290.212°
平近点角 188.653°
近地点: 508.597km
远地点: 513.111km
周期: 94.840分钟
每日圈数: 15.183411
详细信息
使用方式:
暂无
2D轨道图
3D轨道图
轨道高度分析图
轨道倾角分析图
轨道综合分析图
查看轨道综合分析图